QPF
0.00 0.00 0.00 0.00 0.00 0.00 0.00 0.00 0.00 0.00 0.00 0.00 0.00 0.00 0.00 0.00 0.00 0.00 0.00 0.00 0.00 0.00 0.00 0.00 0.00 0.01 0.01 0.00 0.00 0.00 0.00 0.00 0.00 0.00 0.00 0.00 0.00 0.00 0.00 0.00 0.00 0.00 0.00
0.00 0.00 0.00 0.01 0.00 0.00 0.00 0.00 0.00 0.00 0.00 0.00 0.00 0.00 0.00 0.00 0.00 0.00 0.00 0.00 0.00 0.00 0.00 0.00 0.00 0.00 0.01 0.00 0.00 0.00 0.00 0.01 0.00 0.00 0.00 0.00 0.00 0.00 0.00 0.00 0.00 0.00 0.00
0.00 0.00 0.01 0.01 0.00 0.00 0.00 0.00 0.00 0.01 0.01 0.00 0.00 0.00 0.00 0.00 0.00 0.00 0.00 0.00 0.00 0.00 0.00 0.00 0.00 0.00 0.00 0.01 0.01 0.00 0.00 0.00 0.00 0.00 0.00 0.00 0.00 0.00 0.00 0.00 0.00 0.00 0.00
0.01 0.01 0.01 0.01 0.01 0.01 0.01 0.01 0.01 0.01 0.01 0.01 0.00 0.00 0.00 0.00 0.00 0.00 0.00 0.00 0.00 0.00 0.00 0.00 0.00 0.00 0.00 0.01 0.01 0.01 0.01 0.00 0.01 0.01 0.00 0.00 0.00 0.00 0.00 0.00 0.00 0.00 0.00
0.01 0.01 0.01 0.01 0.02 0.02 0.02 0.02 0.02 0.01 0.01 0.01 0.01 0.00 0.00 0.00 0.00 0.00 0.00 0.00 0.00 0.00 0.00 0.00 0.00 0.00 0.00 0.00 0.00 0.00 0.00 0.01 0.01 0.01 0.00 0.00 0.00 0.00 0.00 0.00 0.00 0.00 0.00
0.01 0.01 0.01 0.01 0.01 0.01 0.01 0.01 0.01 0.01 0.01 0.01 0.01 0.01 0.00 0.00 0.00 0.00 0.00 0.00 0.00 0.00 0.00 0.00 0.00 0.00 0.00 0.00 0.00 0.00 0.00 0.01 0.01 0.01 0.01 0.00 0.00 0.01 0.01 0.01 0.01 0.00 0.00
0.01 0.01 0.01 0.01 0.01 0.01 0.01 0.01 0.01 0.01 0.01 0.01 0.01 0.01 0.00 0.00 0.01 0.01 0.00 0.00 0.00 0.00 0.00 0.00 0.00 0.00 0.00 0.00 0.00 0.00 0.00 0.00 0.00 0.01 0.01 0.01 0.01 0.01 0.02 0.01 0.02 0.02 0.01
0.01 0.01 0.01 0.00 0.00 0.00 0.00 0.00 0.00 0.01 0.01 0.01 0.00 0.01 0.01 0.01 0.01 0.01 0.01 0.01 0.00 0.00 0.00 0.00 0.00 0.00 0.00 0.00 0.00 0.00 0.00 0.00 0.00 0.00 0.01 0.01 0.01 0.01 0.02 0.02 0.02 0.02 0.01
0.01 0.01 0.01 0.01 0.00 0.00 0.00 0.00 0.00 0.00 0.00 0.00 0.00 0.00 0.00 0.00 0.01 0.00 0.01 0.00 0.00 0.00 0.00 0.00 0.00 0.00 0.00 0.00 0.00 0.01 0.01 0.00 0.00 0.00 0.00 0.00 0.00 0.00 0.01 0.01 0.01 0.01 0.01
0.01 0.01 0.01 0.01 0.01 0.01 0.01 0.00 0.00 0.00 0.00 0.00 0.00 0.00 0.00 0.00 0.01 0.01 0.01 0.00 0.00 0.00 0.00 0.00 0.00 0.00 0.00 0.00 0.00 0.00 0.00 0.00 0.00 0.01 0.00 0.00 0.00 0.00 0.00 0.00 0.01 0.01 0.01
0.02 0.02 0.01 0.01 0.01 0.01 0.01 0.01 0.01 0.00 0.00 0.00 0.00 0.00 0.00 0.01 0.01 0.01 0.00 0.00 0.00 0.00 0.00 0.00 0.00 0.00 0.00 0.00 0.00 0.00 0.00 0.00 0.01 0.01 0.01 0.01 0.01 0.01 0.01 0.00 0.01 0.01 0.02
0.02 0.02 0.02 0.01 0.01 0.01 0.01 0.00 0.00 0.00 0.00 0.00 0.00 0.00 0.00 0.00 0.00 0.00 0.00 0.00 0.00 0.00 0.00 0.00 0.00 0.00 0.00 0.00 0.00 0.00 0.00 0.00 0.00 0.00 0.00 0.01 0.01 0.01 0.01 0.01 0.01 0.01 0.01
0.02 0.02 0.02 0.02 0.01 0.01 0.01 0.01 0.00 0.00 0.00 0.00 0.01 0.01 0.01 0.01 0.01 0.01 0.01 0.01 0.01 0.00 0.00 0.00 0.00 0.00 0.00 0.00 0.00 0.00 0.00 0.00 0.00 0.00 0.01 0.01 0.01 0.01 0.01 0.01 0.01 0.01 0.01
0.02 0.02 0.01 0.01 0.01 0.01 0.01 0.01 0.01 0.01 0.01 0.01 0.01 0.01 0.01 0.01 0.01 0.01 0.01 0.01 0.01 0.01 0.01 0.01 0.01 0.01 0.01 0.00 0.00 0.01 0.01 0.01 0.01 0.01 0.01 0.01 0.01 0.01 0.01 0.01 0.02 0.02 0.02
0.02 0.02 0.02 0.01 0.01 0.01 0.01 0.01 0.01 0.00 0.01 0.01 0.01 0.01 0.02 0.01 0.01 0.01 0.01 0.00 0.01 0.01 0.01 0.01 0.01 0.01 0.01 0.01 0.01 0.01 0.01 0.01 0.01 0.01 0.01 0.01 0.02 0.02 0.02 0.02 0.02 0.02 0.02
0.01 0.01 0.01 0.01 0.01 0.01 0.01 0.01 0.01 0.01 0.01 0.01 0.02 0.02 0.02 0.01 0.01 0.01 0.00 0.00 0.00 0.00 0.00 0.00 0.01 0.01 0.02 0.03 0.03 0.03 0.03 0.03 0.03 0.03 0.03 0.03 0.03 0.03 0.03 0.03 0.03 0.02 0.02
0.01 0.01 0.01 0.00 0.00 0.00 0.00 0.00 0.00 0.01 0.01 0.02 0.01 0.01 0.01 0.01 0.00 0.00 0.00 0.00 0.00 0.00 0.00 0.00 0.01 0.02 0.03 0.03 0.03 0.04 0.03 0.03 0.04 0.05 0.05 0.05 0.04 0.04 0.03 0.03 0.03 0.03 0.02
0.00 0.00 0.00 0.00 0.00 0.00 0.00 0.00 0.00 0.00 0.00 0.00 0.00 0.00 0.00 0.00 0.00 0.00 0.00 0.00 0.00 0.00 0.01 0.01 0.02 0.03 0.04 0.04 0.04 0.04 0.04 0.05 0.06 0.06 0.06 0.05 0.05 0.04 0.04 0.03 0.03 0.04 0.04
0.00 0.00 0.00 0.00 0.00 0.00 0.00 0.00 0.00 0.00 0.00 0.00 0.00 0.00 0.00 0.00 0.00 0.00 0.00 0.00 0.01 0.01 0.02 0.02 0.03 0.03 0.04 0.04 0.04 0.05 0.05 0.06 0.06 0.07 0.07 0.06 0.06 0.06 0.05 0.04 0.05 0.05 0.04
0.00 0.00 0.00 0.00 0.00 0.00 0.00 0.00 0.00 0.00 0.00 0.00 0.00 0.00 0.00 0.00 0.00 0.01 0.01 0.02 0.02 0.03 0.04 0.04 0.04 0.04 0.03 0.04 0.04 0.05 0.05 0.06 0.08 0.09 0.09 0.09 0.08 0.07 0.06 0.06 0.07 0.07 0.06
0.00 0.00 0.00 0.00 0.00 0.00 0.00 0.00 0.00 0.00 0.00 0.00 0.00 0.00 0.00 0.00 0.01 0.02 0.03 0.04 0.05 0.06 0.07 0.07 0.07 0.07 0.06 0.07 0.07 0.07 0.08 0.08 0.09 0.09 0.09 0.10 0.09 0.08 0.07 0.07 0.06 0.07 0.07
0.00 0.00 0.00 0.00 0.00 0.00 0.00 0.00 0.00 0.00 0.00 0.00 0.00 0.01 0.01 0.01 0.02 0.03 0.06 0.07 0.08 0.07 0.07 0.08 0.08 0.08 0.07 0.07 0.08 0.09 0.10 0.11 0.11 0.10 0.10 0.10 0.09 0.09 0.09 0.08 0.07 0.08 0.08
0.00 0.00 0.00 0.00 0.00 0.00 0.00 0.00 0.00 0.00 0.01 0.01 0.01 0.01 0.02 0.03 0.04 0.07 0.08 0.09 0.10 0.09 0.09 0.08 0.07 0.06 0.05 0.06 0.07 0.09 0.11 0.13 0.12 0.11 0.12 0.11 0.09 0.07 0.07 0.08 0.08 0.08 0.08
0.00 0.00 0.00 0.00 0.00 0.00 0.00 0.00 0.00 0.01 0.01 0.02 0.02 0.02 0.03 0.05 0.07 0.10 0.09 0.09 0.09 0.09 0.09 0.08 0.07 0.07 0.07 0.08 0.08 0.08 0.08 0.08 0.09 0.09 0.09 0.09 0.08 0.07 0.07 0.06 0.06 0.06 0.07
0.00 0.00 0.00 0.00 0.00 0.00 0.00 0.00 0.01 0.01 0.02 0.02 0.03 0.04 0.04 0.05 0.08 0.09 0.07 0.07 0.09 0.09 0.09 0.09 0.08 0.07 0.07 0.08 0.08 0.08 0.07 0.05 0.05 0.05 0.05 0.05 0.05 0.06 0.05 0.04 0.05 0.05 0.06
0.00 0.00 0.00 0.00 0.00 0.00 0.01 0.01 0.01 0.02 0.02 0.03 0.04 0.05 0.05 0.06 0.07 0.07 0.06 0.07 0.09 0.10 0.10 0.08 0.07 0.07 0.08 0.08 0.07 0.07 0.06 0.05 0.04 0.03 0.03 0.03 0.03 0.04 0.05 0.04 0.04 0.04 0.04
MSLP
1014.44 1014.92 1015.37 1015.78 1016.15 1016.48 1016.79 1017.10 1017.41 1017.72 1018.05 1018.37 1018.67 1018.95 1019.18 1019.36 1019.50 1019.60 1019.68 1019.74 1019.81 1019.88 1019.96 1020.03 1020.08 1020.11 1020.10 1020.05 1019.95 1019.80 1019.62 1019.41 1019.18 1018.93 1018.66 1018.40 1018.14 1017.88 1017.64 1017.42 1017.24 1017.10 1017.01
1013.73 1014.21 1014.68 1015.13 1015.55 1015.95 1016.33 1016.70 1017.06 1017.42 1017.76 1018.08 1018.37 1018.62 1018.82 1018.97 1019.09 1019.17 1019.25 1019.32 1019.40 1019.49 1019.59 1019.68 1019.76 1019.81 1019.82 1019.79 1019.71 1019.59 1019.43 1019.23 1019.01 1018.77 1018.50 1018.21 1017.92 1017.62 1017.34 1017.07 1016.84 1016.65 1016.51
1013.02 1013.51 1013.99 1014.46 1014.92 1015.37 1015.81 1016.23 1016.64 1017.03 1017.40 1017.73 1018.01 1018.24 1018.43 1018.57 1018.66 1018.74 1018.82 1018.90 1018.98 1019.09 1019.20 1019.31 1019.40 1019.47 1019.50 1019.49 1019.44 1019.35 1019.22 1019.05 1018.85 1018.63 1018.37 1018.09 1017.78 1017.46 1017.13 1016.81 1016.52 1016.27 1016.07
1012.32 1012.80 1013.28 1013.77 1014.26 1014.73 1015.21 1015.67 1016.12 1016.55 1016.94 1017.29 1017.58 1017.82 1017.99 1018.13 1018.23 1018.32 1018.39 1018.48 1018.58 1018.68 1018.80 1018.91 1019.01 1019.09 1019.14 1019.15 1019.12 1019.06 1018.97 1018.84 1018.68 1018.49 1018.26 1018.00 1017.70 1017.36 1017.01 1016.66 1016.31 1016.00 1015.73
1011.64 1012.11 1012.58 1013.06 1013.55 1014.04 1014.53 1015.02 1015.49 1015.95 1016.37 1016.74 1017.05 1017.31 1017.51 1017.66 1017.78 1017.87 1017.96 1018.05 1018.16 1018.26 1018.37 1018.48 1018.58 1018.65 1018.70 1018.72 1018.72 1018.69 1018.63 1018.55 1018.45 1018.30 1018.12 1017.90 1017.62 1017.30 1016.94 1016.56 1016.17 1015.80 1015.46
1011.01 1011.45 1011.90 1012.35 1012.82 1013.29 1013.78 1014.28 1014.77 1015.24 1015.68 1016.09 1016.43 1016.72 1016.96 1017.14 1017.29 1017.41 1017.51 1017.61 1017.71 1017.80 1017.90 1017.99 1018.07 1018.12 1018.17 1018.19 1018.20 1018.20 1018.18 1018.15 1018.09 1018.01 1017.88 1017.70 1017.47 1017.17 1016.82 1016.44 1016.03 1015.61 1015.21
1010.47 1010.87 1011.27 1011.67 1012.09 1012.53 1013.00 1013.47 1013.96 1014.45 1014.91 1015.35 1015.73 1016.07 1016.35 1016.57 1016.75 1016.90 1017.02 1017.12 1017.21 1017.29 1017.36 1017.42 1017.47 1017.50 1017.53 1017.54 1017.55 1017.57 1017.58 1017.59 1017.58 1017.54 1017.47 1017.34 1017.15 1016.90 1016.58 1016.20 1015.79 1015.35 1014.92
1010.08 1010.41 1010.74 1011.08 1011.43 1011.82 1012.23 1012.67 1013.15 1013.63 1014.11 1014.58 1015.00 1015.37 1015.69 1015.96 1016.17 1016.34 1016.47 1016.58 1016.65 1016.71 1016.74 1016.77 1016.78 1016.78 1016.78 1016.78 1016.78 1016.80 1016.83 1016.85 1016.88 1016.89 1016.85 1016.77 1016.62 1016.41 1016.13 1015.78 1015.39 1014.96 1014.53
1009.88 1010.12 1010.37 1010.62 1010.89 1011.20 1011.55 1011.95 1012.39 1012.86 1013.34 1013.82 1014.27 1014.67 1015.03 1015.33 1015.57 1015.75 1015.88 1015.97 1016.03 1016.06 1016.06 1016.04 1016.02 1015.98 1015.95 1015.92 1015.91 1015.92 1015.95 1015.98 1016.02 1016.04 1016.03 1015.98 1015.87 1015.69 1015.45 1015.14 1014.79 1014.40 1013.99
1009.89 1010.04 1010.19 1010.34 1010.52 1010.74 1011.02 1011.36 1011.76 1012.20 1012.67 1013.15 1013.61 1014.03 1014.40 1014.71 1014.96 1015.14 1015.27 1015.34 1015.37 1015.37 1015.33 1015.28 1015.21 1015.14 1015.08 1015.03 1015.00 1014.99 1015.00 1015.02 1015.05 1015.07 1015.06 1015.02 1014.92 1014.77 1014.56 1014.31 1014.01 1013.68 1013.33
1010.12 1010.18 1010.23 1010.28 1010.37 1010.50 1010.70 1010.97 1011.32 1011.72 1012.16 1012.62 1013.06 1013.48 1013.84 1014.15 1014.39 1014.55 1014.66 1014.70 1014.70 1014.66 1014.58 1014.49 1014.39 1014.29 1014.20 1014.12 1014.06 1014.03 1014.02 1014.02 1014.02 1014.02 1013.99 1013.94 1013.84 1013.71 1013.53 1013.32 1013.08 1012.82 1012.55
1010.55 1010.52 1010.48 1010.44 1010.43 1010.48 1010.60 1010.81 1011.09 1011.44 1011.83 1012.25 1012.66 1013.05 1013.39 1013.66 1013.86 1014.00 1014.07 1014.07 1014.03 1013.94 1013.83 1013.70 1013.57 1013.44 1013.32 1013.22 1013.14 1013.08 1013.03 1013.00 1012.97 1012.93 1012.88 1012.81 1012.71 1012.58 1012.43 1012.26 1012.08 1011.89 1011.70
1011.12 1011.02 1010.90 1010.78 1010.69 1010.66 1010.71 1010.84 1011.06 1011.35 1011.69 1012.05 1012.42 1012.75 1013.04 1013.26 1013.41 1013.49 1013.51 1013.46 1013.36 1013.23 1013.08 1012.91 1012.74 1012.58 1012.43 1012.31 1012.20 1012.11 1012.04 1011.98 1011.92 1011.85 1011.77 1011.68 1011.57 1011.44 1011.31 1011.17 1011.04 1010.91 1010.80
1011.76 1011.59 1011.41 1011.23 1011.08 1010.98 1010.97 1011.04 1011.19 1011.41 1011.69 1011.99 1012.28 1012.55 1012.77 1012.93 1013.02 1013.03 1012.98 1012.87 1012.71 1012.53 1012.32 1012.11 1011.90 1011.70 1011.53 1011.37 1011.24 1011.13 1011.03 1010.94 1010.85 1010.77 1010.67 1010.56 1010.45 1010.33 1010.21 1010.10 1010.01 1009.94 1009.89
1012.36 1012.15 1011.92 1011.69 1011.49 1011.35 1011.28 1011.30 1011.40 1011.56 1011.77 1011.99 1012.22 1012.41 1012.56 1012.64 1012.65 1012.58 1012.46 1012.28 1012.05 1011.80 1011.53 1011.27 1011.01 1010.77 1010.55 1010.37 1010.21 1010.08 1009.96 1009.86 1009.76 1009.66 1009.57 1009.46 1009.35 1009.25 1009.16 1009.08 1009.02 1008.98 1008.96
1012.83 1012.59 1012.33 1012.07 1011.84 1011.66 1011.56 1011.53 1011.58 1011.68 1011.83 1011.99 1012.14 1012.26 1012.33 1012.33 1012.26 1012.12 1011.91 1011.66 1011.36 1011.03 1010.70 1010.37 1010.05 1009.77 1009.51 1009.29 1009.10 1008.95 1008.82 1008.72 1008.62 1008.54 1008.46 1008.38 1008.29 1008.22 1008.15 1008.09 1008.05 1008.03 1008.03
1013.09 1012.83 1012.55 1012.27 1012.02 1011.82 1011.69 1011.63 1011.64 1011.69 1011.79 1011.89 1011.98 1012.03 1012.03 1011.96 1011.82 1011.60 1011.33 1010.99 1010.62 1010.23 1009.82 1009.43 1009.05 1008.70 1008.40 1008.14 1007.92 1007.76 1007.63 1007.53 1007.46 1007.40 1007.35 1007.31 1007.27 1007.22 1007.18 1007.15 1007.12 1007.10 1007.10
1013.09 1012.82 1012.52 1012.23 1011.97 1011.76 1011.61 1011.53 1011.51 1011.53 1011.58 1011.64 1011.67 1011.67 1011.61 1011.48 1011.28 1011.01 1010.67 1010.28 1009.84 1009.39 1008.92 1008.46 1008.02 1007.62 1007.27 1006.98 1006.74 1006.56 1006.44 1006.36 1006.32 1006.30 1006.29 1006.30 1006.30 1006.29 1006.28 1006.26 1006.24 1006.22 1006.19
1012.84 1012.55 1012.24 1011.94 1011.67 1011.46 1011.30 1011.21 1011.16 1011.16 1011.19 1011.21 1011.21 1011.16 1011.06 1010.89 1010.65 1010.34 1009.96 1009.52 1009.04 1008.53 1008.02 1007.51 1007.03 1006.59 1006.20 1005.88 1005.63 1005.45 1005.33 1005.28 1005.27 1005.29 1005.34 1005.39 1005.43 1005.46 1005.47 1005.46 1005.44 1005.39 1005.33
1012.39 1012.08 1011.75 1011.45 1011.17 1010.95 1010.79 1010.69 1010.64 1010.62 1010.62 1010.62 1010.59 1010.53 1010.40 1010.20 1009.94 1009.60 1009.20 1008.74 1008.23 1007.71 1007.16 1006.63 1006.13 1005.66 1005.26 1004.93 1004.68 1004.50 1004.40 1004.37 1004.39 1004.46 1004.54 1004.63 1004.71 1004.76 1004.79 1004.78 1004.73 1004.66 1004.55
1011.83 1011.49 1011.16 1010.84 1010.57 1010.34 1010.18 1010.07 1010.01 1009.98 1009.96 1009.94 1009.90 1009.81 1009.66 1009.46 1009.18 1008.84 1008.43 1007.97 1007.47 1006.94 1006.40 1005.87 1005.37 1004.91 1004.51 1004.19 1003.95 1003.79 1003.71 1003.70 1003.75 1003.84 1003.95 1004.06 1004.16 1004.22 1004.24 1004.22 1004.14 1004.03 1003.87
1011.29 1010.93 1010.58 1010.26 1009.98 1009.75 1009.58 1009.46 1009.38 1009.34 1009.30 1009.26 1009.20 1009.09 1008.93 1008.72 1008.44 1008.10 1007.70 1007.25 1006.77 1006.26 1005.75 1005.24 1004.77 1004.34 1003.97 1003.67 1003.46 1003.32 1003.27 1003.28 1003.35 1003.45 1003.57 1003.69 1003.78 1003.83 1003.83 1003.78 1003.67 1003.51 1003.30
1010.91 1010.54 1010.18 1009.85 1009.56 1009.32 1009.14 1009.00 1008.90 1008.83 1008.77 1008.70 1008.60 1008.47 1008.30 1008.07 1007.78 1007.44 1007.05 1006.62 1006.16 1005.69 1005.21 1004.75 1004.32 1003.94 1003.61 1003.36 1003.18 1003.08 1003.05 1003.08 1003.15 1003.26 1003.37 1003.47 1003.54 1003.56 1003.53 1003.43 1003.28 1003.06 1002.80
1010.82 1010.44 1010.08 1009.73 1009.43 1009.18 1008.97 1008.80 1008.67 1008.57 1008.46 1008.35 1008.21 1008.04 1007.83 1007.57 1007.26 1006.91 1006.52 1006.10 1005.67 1005.22 1004.79 1004.38 1004.00 1003.67 1003.40 1003.19 1003.05 1002.98 1002.97 1003.00 1003.08 1003.17 1003.26 1003.32 1003.35 1003.33 1003.25 1003.11 1002.91 1002.65 1002.35
1011.07 1010.69 1010.32 1009.97 1009.66 1009.38 1009.14 1008.94 1008.77 1008.60 1008.44 1008.27 1008.08 1007.85 1007.58 1007.27 1006.93 1006.55 1006.14 1005.72 1005.29 1004.87 1004.47 1004.09 1003.76 1003.48 1003.25 1003.09 1002.98 1002.93 1002.93 1002.97 1003.03 1003.09 1003.15 1003.17 1003.15 1003.08 1002.95 1002.76 1002.52 1002.22 1001.89
1011.65 1011.28 1010.92 1010.56 1010.23 1009.92 1009.65 1009.40 1009.17 1008.95 1008.72 1008.48 1008.21 1007.91 1007.57 1007.20 1006.80 1006.37 1005.93 1005.48 1005.05 1004.63 1004.24 1003.89 1003.59 1003.34 1003.14 1003.01 1002.92 1002.89 1002.89 1002.91 1002.94 1002.97 1002.98 1002.95 1002.88 1002.76 1002.58 1002.35 1002.07 1001.75 1001.40
Thickness
5738 5735 5733 5730 5727 5724 5721 5719 5715 5713 5709 5707 5704 5702 5699 5696 5693 5689 5688 5685 5681 5679 5677 5674 5671 5669 5669 5668 5666 5664 5661 5658 5656 5659 5661 5661 5657 5654 5656 5656 5656 5657 5660
5741 5736 5733 5730 5726 5723 5721 5718 5715 5711 5708 5705 5703 5700 5697 5695 5691 5688 5684 5683 5679 5677 5675 5672 5669 5667 5664 5662 5661 5660 5658 5655 5652 5650 5652 5654 5653 5651 5650 5649 5652 5654 5654
5742 5737 5733 5729 5726 5723 5721 5717 5714 5710 5706 5704 5700 5697 5695 5693 5689 5686 5683 5680 5677 5675 5672 5669 5667 5664 5660 5660 5657 5656 5655 5654 5650 5648 5648 5649 5647 5647 5645 5645 5647 5646 5648
5742 5737 5733 5730 5727 5724 5720 5716 5712 5708 5704 5701 5698 5695 5693 5690 5687 5684 5681 5678 5675 5672 5669 5667 5664 5662 5658 5655 5653 5650 5649 5647 5646 5644 5644 5644 5643 5643 5640 5639 5641 5644 5643
5740 5735 5732 5729 5726 5722 5718 5714 5710 5706 5703 5699 5696 5693 5690 5688 5686 5682 5678 5675 5672 5669 5666 5664 5662 5659 5655 5651 5650 5649 5645 5642 5642 5641 5640 5639 5639 5636 5635 5636 5635 5635 5637
5736 5733 5730 5727 5722 5719 5715 5711 5707 5704 5700 5697 5693 5690 5687 5686 5683 5676 5672 5671 5669 5666 5663 5661 5659 5655 5651 5646 5642 5640 5637 5636 5636 5634 5634 5633 5630 5630 5629 5627 5627 5627 5627
5733 5730 5727 5723 5719 5716 5713 5708 5703 5700 5696 5692 5689 5686 5684 5682 5676 5670 5665 5663 5663 5662 5660 5658 5657 5658 5651 5647 5642 5635 5632 5628 5626 5626 5627 5626 5625 5624 5621 5620 5619 5618 5618
5729 5726 5724 5720 5716 5713 5708 5704 5699 5696 5692 5689 5686 5683 5681 5678 5672 5666 5660 5657 5658 5658 5657 5655 5652 5651 5649 5644 5640 5638 5635 5632 5627 5621 5621 5621 5620 5617 5614 5611 5611 5611 5611
5725 5721 5719 5716 5712 5707 5703 5698 5695 5691 5688 5685 5682 5679 5676 5674 5668 5661 5654 5655 5656 5655 5654 5653 5650 5647 5643 5636 5632 5631 5630 5630 5627 5622 5619 5616 5612 5608 5605 5604 5605 5605 5608
5718 5715 5713 5709 5705 5701 5697 5693 5690 5685 5682 5680 5678 5675 5672 5669 5664 5656 5649 5651 5652 5652 5652 5650 5645 5642 5638 5631 5627 5626 5624 5624 5622 5621 5614 5610 5607 5605 5600 5597 5599 5600 5602
5709 5706 5703 5699 5696 5693 5690 5686 5683 5679 5676 5673 5671 5669 5666 5663 5658 5651 5644 5643 5645 5646 5647 5647 5646 5640 5632 5626 5620 5620 5620 5617 5615 5614 5612 5611 5608 5605 5602 5598 5596 5595 5596
5697 5694 5691 5689 5686 5684 5680 5676 5674 5671 5667 5665 5662 5660 5660 5657 5652 5646 5639 5634 5633 5633 5635 5637 5637 5631 5624 5619 5614 5613 5609 5604 5606 5607 5607 5607 5606 5604 5602 5599 5596 5593 5591
5684 5682 5680 5678 5675 5673 5670 5667 5664 5661 5660 5658 5656 5654 5652 5651 5647 5638 5632 5628 5623 5621 5625 5625 5621 5616 5612 5610 5607 5604 5599 5598 5600 5601 5603 5603 5603 5601 5598 5594 5591 5588 5585
5670 5668 5667 5666 5663 5660 5658 5658 5655 5653 5650 5648 5646 5644 5642 5640 5636 5632 5628 5623 5616 5613 5613 5614 5609 5606 5603 5602 5602 5599 5596 5597 5598 5598 5599 5599 5597 5595 5591 5589 5586 5584 5582
5657 5656 5655 5655 5653 5649 5647 5645 5643 5640 5637 5632 5631 5629 5627 5625 5620 5611 5607 5608 5606 5604 5599 5600 5602 5604 5603 5602 5601 5599 5597 5595 5592 5591 5592 5591 5589 5588 5586 5584 5580 5578 5577
5644 5644 5644 5643 5640 5639 5636 5634 5629 5625 5620 5616 5612 5608 5609 5604 5600 5595 5591 5588 5585 5580 5579 5588 5593 5595 5596 5595 5594 5593 5592 5591 5589 5587 5585 5584 5583 5581 5579 5577 5575 5573 5572
5630 5629 5630 5629 5628 5626 5624 5621 5619 5615 5609 5605 5601 5596 5591 5588 5584 5581 5578 5575 5572 5567 5570 5579 5583 5584 5585 5585 5584 5583 5583 5583 5583 5580 5579 5577 5575 5574 5572 5570 5568 5567 5566
5620 5617 5616 5615 5614 5613 5610 5608 5606 5603 5601 5599 5594 5586 5581 5576 5572 5568 5564 5561 5568 5566 5569 5571 5572 5572 5572 5572 5572 5572 5572 5573 5573 5571 5570 5569 5567 5566 5565 5564 5563 5560 5560
5608 5607 5604 5602 5602 5601 5598 5596 5593 5589 5586 5584 5582 5578 5571 5566 5561 5558 5552 5555 5559 5560 5559 5558 5557 5557 5557 5558 5558 5559 5559 5561 5561 5561 5561 5561 5560 5558 5558 5558 5557 5554 5551
5595 5590 5588 5589 5589 5587 5584 5581 5577 5574 5570 5567 5565 5562 5558 5553 5552 5550 5546 5545 5544 5544 5543 5542 5542 5543 5544 5544 5545 5546 5547 5549 5550 5550 5551 5552 5551 5551 5551 5551 5550 5549 5548
5584 5582 5576 5576 5575 5572 5568 5564 5560 5557 5554 5551 5548 5544 5533 5533 5535 5534 5532 5531 5530 5529 5529 5529 5529 5530 5532 5533 5534 5535 5536 5538 5539 5541 5543 5544 5545 5545 5546 5545 5545 5544 5544
5569 5569 5566 5563 5559 5555 5550 5547 5544 5541 5537 5534 5531 5529 5521 5519 5520 5520 5518 5517 5517 5517 5518 5517 5518 5520 5522 5524 5524 5525 5527 5529 5531 5533 5535 5537 5538 5539 5539 5539 5539 5539 5538
5555 5553 5551 5547 5543 5537 5534 5533 5529 5525 5521 5518 5515 5512 5510 5507 5505 5505 5504 5504 5505 5506 5507 5507 5509 5511 5512 5513 5514 5517 5519 5522 5524 5525 5526 5528 5531 5533 5534 5534 5534 5534 5534
5541 5539 5535 5531 5527 5523 5519 5515 5512 5509 5506 5503 5499 5497 5495 5492 5491 5491 5491 5493 5494 5496 5498 5499 5501 5503 5504 5505 5507 5510 5511 5512 5513 5515 5517 5520 5523 5526 5528 5528 5529 5529 5529
5526 5523 5519 5515 5511 5507 5503 5499 5496 5493 5490 5487 5484 5482 5480 5479 5479 5479 5480 5481 5483 5485 5488 5489 5491 5494 5497 5499 5501 5502 5501 5501 5502 5505 5509 5513 5516 5519 5521 5522 5522 5523 5524
5510 5506 5503 5499 5495 5491 5487 5484 5481 5478 5475 5473 5471 5469 5468 5467 5468 5469 5470 5471 5473 5476 5479 5481 5483 5486 5489 5492 5493 5493 5493 5494 5495 5496 5500 5506 5511 5514 5516 5516 5517 5518 5519